Location: Colebrook
(42.0017°N, 73.0973°W)
Time: 10:29:13
(UTC-04:00)

Amateur Radio Satellites - All Passes

Search period start: 02 October 2014 09:59
Search period end: 03 October 2014 09:59
Location: Colebrook, 42.0017°N, 73.0973°W

Satellite Date Start Highest point End Downlink Frequencies (MHz)
Time Altitude Azimuth
FUNcube-1 02 Oct 10:05:08 10:07:27 14° 90° (E) 10:09:43 145.950 - 145.970 MHz USB
UKube-1 02 Oct 10:06:46 10:10:54 40° 99° (E) 10:15:00 145.840 MHz, 145.915 MHz
Sapphire 02 Oct 10:13:23 10:18:39 52° 305° (NW) 10:23:57 437.095 MHz 1200 baud AX-25 AFSK
HO-68 02 Oct 10:33:44 10:40:53 69° 290° (WNW) 10:48:00 435.675 MHz FM
PCSat 02 Oct 10:39:32 10:44:21 32° 310° (NW) 10:49:11 145.825 MHz
ZACube-1 02 Oct 10:49:04 10:53:23 41° 98° (E) 10:57:34 437.345 MHz
Oscar 11 02 Oct 11:12:08 11:16:17 46° 288° (WNW) 11:20:24 145.825 FM, Beacon 2401.500 USB
RS-15 02 Oct 11:38:32 11:49:42 83° 240° (WSW) 12:01:20 29.354 - 29.394 USB, Beacon 29.352 USB
FUNcube-1 02 Oct 11:39:45 11:44:14 57° 287° (WNW) 11:48:34 145.950 - 145.970 MHz USB
UKube-1 02 Oct 11:43:40 11:46:49 20° 295° (WNW) 11:49:57 145.840 MHz, 145.915 MHz
Sapphire 02 Oct 12:01:50 12:03:24 11° 326° (NNW) 12:04:58 437.095 MHz 1200 baud AX-25 AFSK
Oscar 16 02 Oct 12:07:58 12:10:52 15° 60° (ENE) 12:13:46 437.025 USB, Beacon 2401.1428
HO-68 02 Oct 12:23:49 12:27:18 14° 310° (NW) 12:30:47 435.675 MHz FM
ZACube-1 02 Oct 12:26:08 12:29:28 21° 295° (WNW) 12:32:46 437.345 MHz
Saudisat 1A 02 Oct 12:35:04 12:35:28 10° 107° (ESE) 12:35:53 436.775 MHz
JAS-1B 02 Oct 12:44:48 12:50:38 27° 64° (ENE) 12:55:47 435.800 - 435.900 CW/SSB
Oscar 19 02 Oct 13:03:22 13:08:17 45° 70° (ENE) 13:13:13 437.125 CW, 437.150 USB
ITAMSAT 1 02 Oct 13:19:01 13:23:20 28° 65° (ENE) 13:27:42 435.822 SSB
Uribyol 2 02 Oct 13:19:23 13:23:49 30° 66° (ENE) 13:28:18 436.500 FM
TMSAT-1 02 Oct 13:22:05 13:23:34 11° 57° (ENE) 13:25:03 436.925 FM
AO-Echo 02 Oct 13:43:07 13:47:38 50° 72° (ENE) 13:52:13 ?
Oscar 16 02 Oct 13:44:23 13:49:35 75° 257° (WSW) 13:54:48 437.025 USB, Beacon 2401.1428
RS-15 02 Oct 13:53:04 14:00:24 20° 260° (W) 14:07:57 29.354 - 29.394 USB, Beacon 29.352 USB
AO-27 02 Oct 13:56:55 14:02:00 62° 72° (ENE) 14:07:08 436.795 MHz FM
Saudisat 1A 02 Oct 14:09:57 14:14:21 84° 303° (WNW) 14:18:47 436.775 MHz
Gurwin Techsat 1B 02 Oct 14:29:42 14:34:54 60° 72° (ENE) 14:40:08 435.225 FM
JAS-1B 02 Oct 14:33:36 14:41:02 55° 258° (WSW) 14:47:20 435.800 - 435.900 CW/SSB
Oscar 19 02 Oct 14:43:47 14:47:49 23° 267° (W) 14:51:52 437.125 CW, 437.150 USB
AO-7 02 Oct 14:49:14 14:56:11 31° 56° (ENE) 15:03:08 29.400 - 29.500 MHz
TMSAT-1 02 Oct 14:57:18 15:02:35 79° 74° (ENE) 15:07:54 436.925 FM
ITAMSAT 1 02 Oct 14:57:53 15:02:40 38° 262° (W) 15:07:30 435.822 SSB
Uribyol 2 02 Oct 14:58:28 15:03:11 35° 263° (W) 15:07:57 436.500 FM
MaSat-1 02 Oct 15:04:57 15:08:17 74° 246° (WSW) 15:11:08 437.345 MHz
Uosat F 02 Oct 15:07:24 15:10:37 17° 61° (ENE) 15:13:50 435.120 FM
AO-Echo 02 Oct 15:23:44 15:26:44 17° 268° (W) 15:29:46 ?
AO-27 02 Oct 15:38:44 15:41:56 16° 269° (W) 15:45:09 436.795 MHz FM
Saudisat 1A 02 Oct 15:52:21 15:54:37 14° 323° (NW) 15:56:54 436.775 MHz
Gurwin Techsat 1B 02 Oct 16:11:49 16:15:16 17° 269° (W) 16:18:45 435.225 FM
KITSAT 1 02 Oct 16:24:03 16:31:36 45° 111° (ESE) 16:39:09 435.175 FM
Hamsat 02 Oct 16:34:58 16:36:38 12° 62° (ENE) 16:38:18 145.90 MHz
AO-7 02 Oct 16:40:13 16:48:26 65° 256° (WSW) 16:56:40 29.400 - 29.500 MHz
TMSAT-1 02 Oct 16:40:46 16:43:06 13° 271° (W) 16:45:27 436.925 FM
Uosat F 02 Oct 16:43:59 16:48:54 61° 258° (WSW) 16:53:53 435.120 FM
OPAL 02 Oct 16:57:56 17:01:42 21° 95° (E) 17:05:25 ?
Oscar 10/S400 02 Oct 17:05:22 17:23:18 50° 160° (SSE) 18:11:42 145.825 - 145.975 CW/USB, Beacon 145.810 USB
JAS-2 02 Oct 17:12:00 17:16:51 42° 68° (ENE) 17:22:01 435.800 - 435.900 CW/SSB, 435.910 FM
Sapphire 02 Oct 17:18:05 17:22:26 24° 46° (NE) 17:26:46 437.095 MHz 1200 baud AX-25 AFSK
PCSat 02 Oct 17:43:09 17:48:11 37° 52° (NE) 17:53:11 145.825 MHz
SO-50 02 Oct 17:49:35 17:51:19 12° 107° (ESE) 17:53:05 436.795 FM
Hamsat 02 Oct 18:07:43 18:12:02 68° 259° (W) 18:16:20 145.90 MHz
KITSAT 1 02 Oct 18:19:18 18:26:59 46° 311° (NW) 18:34:43 435.175 FM
OPAL 02 Oct 18:35:56 18:40:50 48° 292° (WNW) 18:45:38 ?
AO-7 02 Oct 18:41:06 18:42:45 11° 274° (W) 18:44:24 29.400 - 29.500 MHz
JAS-2 02 Oct 18:58:12 19:02:15 23° 268° (W) 19:06:29 435.800 - 435.900 CW/SSB, 435.910 FM
Sapphire 02 Oct 19:00:54 19:06:15 59° 245° (WSW) 19:11:34 437.095 MHz 1200 baud AX-25 AFSK
SO-67 02 Oct 19:11:29 19:14:56 88° 76° (ENE) 19:18:24 435.3500 MHz FM
HO-68 02 Oct 19:17:33 19:22:21 20° 54° (NE) 19:27:10 435.675 MHz FM
AO-40 02 Oct 19:26:35 01:09:23 41° 183° (S) 08:18:40 Beacon 2401.320
PCSat 02 Oct 19:26:42 19:31:32 33° 250° (WSW) 19:36:19 145.825 MHz
SO-50 02 Oct 19:26:43 19:31:12 75° 305° (NW) 19:35:49 436.795 FM
STRAND 1 02 Oct 19:39:54 19:45:03 67° 102° (ESE) 19:50:10 ?
UOSAT-12 02 Oct 19:46:53 19:49:52 17° 109° (ESE) 19:52:53 437.025 FM, 437.400 FM
KITSAT 1 02 Oct 20:20:05 20:24:46 16° 337° (NNW) 20:29:28 435.175 FM
Oscar 11 02 Oct 20:33:21 20:35:43 15° 63° (ENE) 20:38:05 145.825 FM, Beacon 2401.500 USB
PANSAT 02 Oct 20:52:35 20:53:37 11° 181° (S) 20:54:40 not established
Saudisat 1A 02 Oct 20:58:09 21:00:30 14° 37° (NE) 21:02:52 436.775 MHz
HO-68 02 Oct 21:02:00 21:09:09 87° 253° (WSW) 21:16:22 435.675 MHz FM
FUNcube-1 02 Oct 21:02:28 21:04:39 13° 62° (ENE) 21:06:51 145.950 - 145.970 MHz USB
UKube-1 02 Oct 21:02:38 21:06:37 37° 70° (ENE) 21:10:38 145.840 MHz, 145.915 MHz
SO-50 02 Oct 21:10:21 21:12:36 13° 325° (NW) 21:14:53 436.795 FM
STRAND 1 02 Oct 21:20:30 21:23:41 17° 299° (WNW) 21:26:51 ?
UOSAT-12 02 Oct 21:24:59 21:29:33 58° 307° (NW) 21:34:13 437.025 FM, 437.400 FM
ISS 02 Oct 21:28:40 21:31:50 42° 139° (SE) 21:35:00 145.800 FM
ZACube-1 02 Oct 21:45:43 21:49:51 35° 70° (ENE) 21:54:04 437.345 MHz
Oscar 11 02 Oct 22:07:08 22:11:25 57° 260° (W) 22:15:44 145.825 FM, Beacon 2401.500 USB
KITSAT 1 02 Oct 22:21:21 22:24:24 12° 9° (N) 22:27:27 435.175 FM
FUNcube-1 02 Oct 22:35:54 22:40:26 70° 259° (WSW) 22:45:03 145.950 - 145.970 MHz USB
Saudisat 1A 02 Oct 22:36:19 22:40:46 86° 57° (ENE) 22:45:10 436.775 MHz
UKube-1 02 Oct 22:39:45 22:42:56 20° 266° (W) 22:46:08 145.840 MHz, 145.915 MHz
HO-68 02 Oct 22:53:56 22:57:48 15° 271° (W) 23:01:40 435.675 MHz FM
ISS 02 Oct 23:05:37 23:08:36 30° 337° (NNW) 23:11:36 145.800 FM
UOSAT-12 02 Oct 23:09:02 23:10:43 12° 327° (NNW) 23:12:25 437.025 FM, 437.400 FM
ZACube-1 02 Oct 23:22:41 23:26:19 23° 266° (W) 23:30:01 437.345 MHz
RS-15 02 Oct 23:59:25 00:02:47 12° 95° (E) 00:06:08 29.354 - 29.394 USB, Beacon 29.352 USB
KITSAT 1 03 Oct 00:16:30 00:23:13 28° 38° (NE) 00:29:53 435.175 FM
ISS 03 Oct 00:43:57 00:46:04 16° 357° (N) 00:48:12 145.800 FM
Oscar 19 03 Oct 01:16:00 01:18:54 15° 90° (E) 01:21:46 437.125 CW, 437.150 USB
AO-Echo 03 Oct 01:50:33 01:53:47 17° 92° (E) 01:57:03 ?
Oscar 16 03 Oct 01:56:00 02:00:47 37° 97° (E) 02:05:30 437.025 USB, Beacon 2401.1428
RS-15 03 Oct 02:01:56 02:12:45 64° 115° (ESE) 02:23:26 29.354 - 29.394 USB, Beacon 29.352 USB
AO-27 03 Oct 02:10:21 02:14:18 21° 93° (E) 02:18:14 436.795 MHz FM
KITSAT 1 03 Oct 02:11:30 02:19:37 86° 241° (WSW) 02:27:41 435.175 FM
JAS-1B 03 Oct 02:17:18 02:22:33 35° 98° (E) 02:28:13 435.800 - 435.900 CW/SSB
SO-50 03 Oct 02:18:15 02:21:36 19° 40° (NE) 02:25:00 436.795 FM
ISS 03 Oct 02:20:59 02:23:40 22° 17° (NNE) 02:26:20 145.800 FM
Gurwin Techsat 1B 03 Oct 02:46:12 02:50:23 23° 93° (E) 02:54:33 435.225 FM
Oscar 19 03 Oct 02:53:36 02:58:42 66° 287° (WNW) 03:03:45 437.125 CW, 437.150 USB
ITAMSAT 1 03 Oct 03:09:48 03:15:03 75° 103° (ESE) 03:20:16 435.822 SSB
Uribyol 2 03 Oct 03:10:09 03:15:25 80° 104° (ESE) 03:20:39 436.500 FM
TMSAT-1 03 Oct 03:13:11 03:17:51 30° 96° (E) 03:22:28 436.925 FM
AO-Echo 03 Oct 03:27:55 03:32:53 59° 287° (WNW) 03:37:58 ?
Oscar 16 03 Oct 03:35:39 03:39:58 28° 294° (WNW) 03:44:14 437.025 USB, Beacon 2401.1428
AO-27 03 Oct 03:49:02 03:54:03 48° 290° (WNW) 03:59:03 436.795 MHz FM
ISS 03 Oct 03:57:21 04:00:42 86° 214° (SW) 04:04:00 145.800 FM
SO-50 03 Oct 03:57:53 04:02:43 77° 238° (WSW) 04:07:35 436.795 FM
JAS-1B 03 Oct 04:08:14 04:13:12 32° 294° (WNW) 04:18:31 435.800 - 435.900 CW/SSB
KITSAT 1 03 Oct 04:09:02 04:13:49 17° 259° (W) 04:18:36 435.175 FM
OPAL 03 Oct 04:12:36 04:17:27 41° 67° (ENE) 04:22:19 ?
UOSAT-12 03 Oct 04:14:49 04:18:26 21° 42° (NE) 04:22:00 437.025 FM, 437.400 FM
RS-15 03 Oct 04:15:23 04:25:38 43° 320° (NW) 04:35:57 29.354 - 29.394 USB, Beacon 29.352 USB
Gurwin Techsat 1B 03 Oct 04:25:30 04:30:33 46° 290° (WNW) 04:35:35 435.225 FM
AO-7 03 Oct 04:41:21 04:49:10 44° 100° (E) 04:56:57 29.400 - 29.500 MHz
MaSat-1 03 Oct 04:47:18 04:51:44 37° 110° (ESE) 04:55:59 437.345 MHz
ITAMSAT 1 03 Oct 04:50:57 04:53:54 15° 300° (WNW) 04:56:52 435.822 SSB
Uosat F 03 Oct 04:51:20 04:56:05 40° 98° (E) 05:00:48 435.120 FM
Uribyol 2 03 Oct 04:51:28 04:54:12 15° 301° (WNW) 04:56:56 436.500 FM
TMSAT-1 03 Oct 04:52:59 04:57:46 35° 292° (WNW) 05:02:32 436.925 FM
STRAND 1 03 Oct 05:20:28 05:22:52 14° 59° (ENE) 05:25:17 ?
ISS 03 Oct 05:36:38 05:36:52 10° 231° (SW) 05:37:06 145.800 FM
OPAL 03 Oct 05:52:06 05:56:25 26° 263° (W) 06:00:46 ?
Hamsat 03 Oct 05:53:53 05:56:59 20° 93° (E) 06:00:04 145.90 MHz
UOSAT-12 03 Oct 05:54:19 05:58:58 61° 241° (WSW) 06:03:33 437.025 FM, 437.400 FM
JAS-2 03 Oct 06:03:13 06:09:44 44° 98° (E) 06:16:51 435.800 - 435.900 CW/SSB, 435.910 FM
MaSat-1 03 Oct 06:24:09 06:28:13 27° 305° (NW) 06:32:04 437.345 MHz
Uosat F 03 Oct 06:30:34 06:34:39 25° 295° (WNW) 06:38:44 435.120 FM
RS-15 03 Oct 06:34:02 06:42:00 22° 353° (N) 06:50:04 29.354 - 29.394 USB, Beacon 29.352 USB
AO-7 03 Oct 06:34:13 06:41:55 45° 298° (WNW) 06:49:37 29.400 - 29.500 MHz
STRAND 1 03 Oct 06:56:15 07:01:21 83° 256° (WSW) 07:06:30 ?
Hamsat 03 Oct 07:29:14 07:33:02 34° 289° (WNW) 07:36:48 145.90 MHz
JAS-2 03 Oct 07:48:33 07:54:38 38° 293° (WNW) 08:01:19 435.800 - 435.900 CW/SSB, 435.910 FM
Sapphire 03 Oct 08:02:03 08:05:21 17° 104° (ESE) 08:08:39 437.095 MHz 1200 baud AX-25 AFSK
SO-67 03 Oct 08:07:26 08:10:54 81° 283° (WNW) 08:14:20 435.3500 MHz FM
PCSat 03 Oct 08:25:47 08:30:24 30° 109° (ESE) 08:35:03 145.825 MHz
HO-68 03 Oct 08:31:06 08:35:29 17° 90° (E) 08:39:51 435.675 MHz FM
AO-7 03 Oct 08:31:31 08:32:34 10° 321° (NW) 08:33:38 29.400 - 29.500 MHz
RS-15 03 Oct 08:49:56 08:59:19 30° 28° (NNE) 09:08:55 29.354 - 29.394 USB, Beacon 29.352 USB
Sapphire 03 Oct 09:42:46 09:48:09 69° 302° (WNW) 09:53:35 437.095 MHz 1200 baud AX-25 AFSK
